Date,TemperatureHighF,TemperatureAvgF,TemperatureLowF,DewpointHighF,DewpointAvgF,DewpointLowF,HumidityHigh,HumidityAvg,HumidityLow,PressureMaxIn,PressureMinIn,WindSpeedMaxMPH,WindSpeedAvgMPH,GustSpeedMaxMPH,PrecipitationSumIn
2013-1-1,50,48,45,50,43,30,100,85,51,30.08,29.89,5,0,5,0.50
2013-1-2,54,50,47,49,47,43,100,90,71,30.08,29.84,4,0,4,0.08
2013-1-3,47,43,33,46,42,29,100,97,85,30.26,30.03,0,0,0,0.00
2013-1-4,52,39,29,32,27,21,91,65,35,30.32,30.19,10,0,10,0.00
2013-1-5,34,33,33,23,23,22,67,64,62,30.30,30.29,0,0,0,0.00
2013-1-8,49,49,48,40,39,38,74,70,68,30.34,30.30,0,0,0,0.02
2013-1-9,66,56,48,53,47,40,87,74,60,30.40,30.31,4,0,4,0.00
2013-1-10,70,59,48,57,52,48,100,81,53,30.41,30.24,10,0,10,0.01
2013-1-11,58,54,51,57,54,51,100,100,98,30.24,30.10,0,0,0,0.21
2013-1-12,71,60,52,65,58,52,100,94,69,30.11,30.02,9,0,9,0.01
2013-1-13,71,63,57,62,60,57,100,91,71,30.08,29.98,10,0,10,0.00
2013-1-14,69,64,61,66,62,60,100,94,83,30.06,29.97,10,0,10,0.16
2013-1-15,63,55,46,62,55,46,100,100,97,30.06,29.97,0,0,0,0.08
2013-1-16,52,48,45,52,48,45,100,100,100,29.99,29.90,4,0,4,0.24
2013-1-17,53,49,38,53,49,37,100,100,97,30.16,29.66,0,0,0,2.11
2013-1-18,52,41,32,37,27,18,100,63,28,30.46,30.16,10,0,10,0.00
2013-1-19,54,40,28,30,27,21,92,63,28,30.44,30.15,8,0,9,0.00
2013-1-20,64,48,36,37,31,27,75,54,33,30.15,29.98,12,2,12,0.00
2013-1-21,62,44,30,35,26,16,92,55,26,30.05,29.92,21,4,21,0.00
2013-1-22,48,38,28,19,15,9,67,40,21,30.22,30.00,16,3,16,0.00
2013-1-23,52,38,25,29,21,11,73,50,36,30.31,30.07,13,1,13,0.00
2013-1-24,58,45,29,36,22,4,71,44,15,30.42,29.98,9,2,13,0.00
2013-1-25,33,28,25,28,16,6,84,61,38,30.46,30.08,0,0,1,0.00
2013-1-26,56,39,27,37,30,25,98,74,34,30.28,30.07,5,0,5,0.03
2013-1-27,48,38,30,32,30,27,93,72,50,30.51,30.28,9,0,9,0.00
2013-1-28,50,44,41,44,37,30,100,75,61,30.41,30.23,5,0,5,0.00
2013-1-29,70,56,42,60,52,42,100,86,63,30.23,29.93,10,0,10,0.00
2013-1-30,70,63,48,64,58,44,100,86,74,29.93,29.41,20,4,20,1.22
2013-1-31,50,43,36,45,25,18,88,51,28,30.06,29.57,23,4,23,0.00
2013-2-1,47,39,27,28,14,-1,64,39,15,30.32,29.96,16,5,16,0.00
2013-2-2,45,34,23,38,19,6,97,58,20,30.35,30.02,15,2,15,0.09
2013-2-3,54,42,32,38,30,24,97,67,33,30.02,29.85,22,3,22,0.01
2013-2-4,48,38,28,30,26,22,83,63,37,30.11,29.97,6,1,6,0.00
2013-2-5,62,47,35,46,38,29,93,70,50,29.97,29.87,17,2,17,0.00
2013-2-6,70,51,38,44,34,20,100,62,16,30.12,29.95,9,1,9,0.00
2013-2-7,48,44,42,42,35,26,99,73,45,30.16,29.92,0,0,0,0.39
2013-2-8,61,48,38,48,40,27,100,77,52,30.08,29.86,14,2,14,0.00
2013-2-9,61,44,29,31,25,18,85,52,20,30.27,30.06,10,1,10,0.00
2013-2-10,58,47,38,47,35,24,100,66,34,30.37,30.10,12,1,12,0.52
2013-2-11,55,51,47,55,51,47,100,99,93,30.12,29.94,6,1,6,0.18
2013-2-12,59,50,43,51,42,28,100,78,32,30.05,29.84,5,1,5,0.17
2013-2-13,51,45,36,47,42,34,100,92,75,29.86,29.65,15,3,15,0.07
2013-2-14,52,40,30,38,33,30,100,81,48,30.04,29.85,10,4,10,0.00
2013-2-15,62,46,31,40,33,29,100,67,30,30.07,29.90,14,2,14,0.00
2013-2-16,45,37,28,36,28,16,93,71,45,30.03,29.78,14,4,14,0.02
2013-2-17,48,34,25,18,10,4,62,40,17,30.23,30.03,17,5,17,0.00
2013-2-18,56,40,25,28,21,14,81,49,26,30.34,30.16,11,2,11,0.00
2013-2-19,53,43,35,44,32,16,99,69,28,30.17,29.88,16,2,16,0.22
2013-2-20,57,42,26,23,18,11,78,42,18,30.09,30.00,9,2,9,0.00
2013-2-21,60,45,31,36,20,11,63,38,20,30.18,30.01,6,0,6,0.00
2013-2-22,49,40,38,40,38,30,100,94,50,30.19,30.06,0,0,0,0.41
2013-2-23,45,42,38,45,41,38,100,99,96,30.09,29.81,0,0,0,0.29
2013-2-24,67,51,42,47,40,30,100,73,29,29.94,29.82,8,0,8,0.00
2013-2-25,47,43,36,34,29,26,93,58,47,30.08,29.92,13,2,13,0.03
2013-2-26,42,37,33,42,37,32,100,98,83,29.97,29.56,22,3,22,0.97
2013-2-27,56,46,39,38,35,33,82,65,43,29.79,29.66,22,3,22,0.00
2013-2-28,51,42,32,35,28,23,76,58,39,29.88,29.70,19,4,19,0.00
2013-3-1,54,40,27,32,27,23,88,64,38,29.92,29.81,13,1,13,0.00
2013-3-2,45,40,33,35,32,24,90,74,55,29.91,29.81,15,0,15,0.01
2013-3-3,48,35,24,24,20,15,85,56,28,30.00,29.86,12,1,12,0.00
2013-3-4,54,38,22,29,19,14,80,51,22,30.14,29.99,10,0,10,0.00
2013-3-5,61,48,38,54,40,28,99,75,49,30.02,29.58,30,2,30,0.41
2013-3-6,50,40,32,29,25,20,76,56,38,30.08,29.68,21,5,21,0.00
2013-3-7,58,41,26,32,28,23,91,63,33,30.22,30.08,7,0,8,0.00
2013-3-8,64,44,28,30,23,17,82,49,18,30.29,30.14,7,0,7,0.00
2013-3-9,64,47,33,34,27,22,73,47,25,30.31,30.17,7,0,7,0.00
2013-3-10,67,53,40,39,35,30,83,53,30,30.24,30.08,12,1,12,0.00
2013-3-11,67,54,44,56,47,38,100,78,57,30.10,29.76,18,3,18,0.60
2013-3-12,68,58,47,57,46,22,100,72,24,29.97,29.67,10,2,11,0.16
2013-3-13,58,46,36,33,26,19,81,48,23,30.13,29.97,21,4,21,0.00
2013-3-14,53,40,26,24,20,14,77,47,25,30.28,30.12,11,1,11,0.00
2013-3-15,72,51,30,42,31,17,77,48,29,30.17,29.88,18,2,18,0.00
2013-3-16,77,65,55,48,42,37,63,44,27,29.88,29.72,21,4,21,0.00
2013-3-17,74,64,54,52,47,39,72,53,38,29.95,29.81,17,2,17,0.00
2013-3-18,56,44,42,45,41,40,100,91,67,30.03,29.81,16,2,16,0.42
2013-3-19,69,54,43,50,34,19,100,60,18,29.99,29.82,16,3,16,0.01
2013-3-20,58,48,38,30,20,13,65,35,19,30.07,29.78,18,1,18,0.00
2013-3-21,54,42,32,30,12,2,60,32,17,29.92,29.77,19,4,19,0.00
2013-3-22,49,38,27,30,20,13,79,50,28,30.06,29.92,9,1,9,0.00
2013-3-23,50,45,40,47,40,28,99,86,62,29.99,29.82,6,0,6,0.23
2013-3-24,46,44,42,45,42,40,100,94,80,29.84,29.51,14,3,14,1.08
2013-3-25,45,41,34,43,26,20,99,56,38,29.93,29.53,24,7,26,0.00
2013-3-26,51,39,29,26,23,19,78,54,32,30.17,29.91,13,2,13,0.00
2013-3-27,56,40,26,28,23,18,87,55,25,30.26,30.12,11,1,11,0.00
2013-3-28,62,44,28,27,23,17,82,49,18,30.29,30.12,12,1,12,0.00
2013-3-29,60,47,30,40,28,20,78,50,24,30.31,30.15,9,1,9,0.00
2013-3-30,69,56,44,49,41,37,87,61,32,30.16,29.97,12,1,12,0.02
2013-3-31,70,58,51,57,54,48,100,86,53,29.99,29.78,18,2,18,0.61
2013-4-1,76,62,54,58,47,34,100,64,25,29.91,29.76,15,2,16,0.03
2013-4-2,71,57,43,39,32,17,77,42,18,30.08,29.91,13,2,13,0.00
2013-4-3,60,55,49,32,24,16,41,31,23,30.19,30.03,15,1,15,0.00
2013-4-10,84,72,60,61,58,55,91,63,39,30.05,29.86,10,0,10,0.00
2013-4-11,80,68,58,68,61,55,99,79,52,29.90,29.63,11,1,11,0.48
2013-4-12,76,68,58,68,55,39,100,68,30,29.77,29.58,15,3,15,1.03
2013-4-13,78,61,44,46,40,34,89,51,21,29.94,29.77,4,4,4,0.00
2013-4-14,68,59,51,55,47,38,92,65,40,30.02,29.88,6,2,6,0.02
2013-4-15,72,62,56,60,58,54,100,86,60,30.12,29.88,5,0,5,0.22
2013-4-16,81,67,58,63,59,56,98,77,46,30.22,30.09,5,0,5,0.00
2013-4-17,83,68,60,65,61,58,100,82,49,30.16,30.03,8,1,8,0.39
2013-4-18,79,68,59,64,61,57,100,80,48,30.07,29.88,8,1,8,0.01
2013-4-19,72,63,49,66,59,45,99,89,75,29.88,29.70,12,3,12,0.49
2013-4-20,66,52,39,45,37,28,98,63,28,30.20,29.87,6,2,6,0.00
2013-4-21,68,54,41,42,37,32,81,56,32,30.34,30.20,12,0,12,0.00
2013-4-22,66,54,45,42,39,34,81,58,35,30.34,30.14,13,0,13,0.00
2013-4-23,74,57,43,51,43,35,83,61,37,30.20,30.03,12,0,12,0.00
2013-4-24,69,57,51,57,52,49,99,85,63,30.07,30.03,11,0,11,0.00
2013-4-25,76,66,53,47,42,32,69,44,25,30.20,30.09,7,0,7,0.00
2013-4-26,74,59,45,50,38,30,73,48,27,30.35,30.20,11,0,11,0.00
2013-4-27,60,56,52,57,53,47,100,91,66,30.30,30.16,3,0,3,0.21
2013-4-28,56,53,52,56,53,51,100,100,100,30.19,29.99,0,0,0,1.73
2013-4-29,72,60,54,63,57,54,100,90,61,30.00,29.86,6,0,6,0.09
2013-4-30,75,64,54,63,59,54,100,85,58,30.08,29.90,6,0,6,0.00
2013-5-1,66,62,55,59,55,52,95,80,65,30.17,30.07,12,0,12,0.00
2013-5-2,61,59,57,58,56,55,96,92,85,30.20,30.13,7,0,7,0.00
2013-5-3,63,59,57,57,55,51,98,87,70,30.13,29.98,11,0,11,0.01
2013-5-4,59,54,52,54,49,42,100,85,66,29.99,29.85,11,2,11,0.79
2013-5-5,55,53,51,55,53,51,100,100,100,29.87,29.75,8,2,8,1.67
2013-5-6,64,55,48,55,50,44,100,84,54,29.86,29.73,10,1,10,0.01
2013-5-7,72,56,46,55,49,45,100,81,40,29.89,29.80,6,0,6,0.03
2013-5-8,76,61,50,60,54,50,100,81,46,29.96,29.86,10,1,10,0.00
2013-5-9,82,67,54,59,56,52,100,72,37,30.02,29.93,6,0,6,0.00
2013-5-10,80,69,57,63,60,55,100,75,50,30.00,29.88,11,0,11,0.00
2013-5-11,76,68,63,66,62,59,100,79,62,29.90,29.76,10,0,10,0.13
2013-5-12,75,63,53,63,49,35,100,68,27,29.99,29.79,12,0,12,0.00
2013-5-13,71,57,43,42,37,31,85,51,25,30.14,29.98,7,0,7,0.00
2013-5-14,73,53,43,46,40,36,85,63,33,30.21,30.11,6,0,6,0.00
2013-5-15,88,81,72,60,58,54,59,45,36,29.95,29.88,12,0,12,0.00
2013-5-16,82,72,62,63,59,56,83,66,44,29.97,29.88,10,0,10,0.00
2013-5-17,83,71,59,64,60,56,92,69,46,30.02,29.93,6,0,6,0.00
2013-5-18,75,69,64,68,64,60,100,85,61,30.05,29.95,5,0,5,0.32
2013-5-19,74,69,65,68,66,64,100,92,76,30.04,29.94,5,0,5,0.32
2013-5-20,83,71,63,70,66,63,100,86,59,30.03,29.93,4,0,4,0.00
2013-5-21,88,75,66,71,67,64,100,80,50,29.96,29.85,4,0,4,0.00
2013-5-22,83,72,64,70,65,62,100,82,60,29.92,29.78,9,0,9,0.46
2013-5-23,83,71,63,68,63,54,100,79,48,29.88,29.76,10,0,10,0.19
2013-5-24,79,68,57,56,51,40,89,59,27,30.04,29.83,14,0,14,0.00
2013-5-26,72,64,60,56,55,53,80,72,55,30.14,30.10,0,0,0,0.00
2013-5-27,83,68,55,62,57,51,92,70,42,30.19,30.05,4,0,4,0.00
2013-5-28,82,71,61,66,62,57,96,74,47,30.16,30.06,4,0,4,0.00
2013-5-29,83,71,60,64,62,58,99,73,46,30.17,30.08,4,0,4,0.00
2013-5-30,83,72,62,66,63,60,98,76,48,30.20,30.07,5,0,5,0.00
2013-5-31,84,74,64,68,65,62,99,77,52,30.16,30.01,4,0,4,0.00
2013-6-1,84,74,66,68,65,63,94,75,53,30.06,29.93,6,0,6,0.00
2013-6-2,76,70,65,72,67,64,100,90,72,29.96,29.83,3,0,3,2.00
2013-6-3,83,72,64,72,68,64,100,89,59,29.86,29.76,5,0,5,0.00
2013-6-4,85,74,65,71,68,65,100,83,53,29.96,29.84,7,0,7,0.00
2013-6-5,83,72,67,72,68,66,100,90,66,30.00,29.88,7,0,7,0.40
2013-6-6,75,69,64,72,68,64,100,98,85,29.92,29.71,3,0,3,0.98
2013-6-7,84,71,67,72,68,66,100,94,63,29.76,29.59,7,0,7,0.41
2013-6-8,82,73,67,71,68,65,100,86,58,30.00,29.74,4,0,4,0.00
2013-6-9,82,71,67,74,70,67,100,95,68,30.06,29.96,3,0,3,1.84
2013-6-10,75,71,66,73,69,64,100,95,83,29.97,29.85,10,0,10,0.42
2013-6-11,88,77,68,73,70,66,100,81,50,29.93,29.84,10,0,10,0.06
2013-6-12,91,78,67,76,70,66,100,79,54,29.95,29.84,5,0,5,0.00
2013-6-20,78,71,68,66,65,65,88,82,68,30.13,30.08,0,0,1,0.84
2013-6-21,84,72,64,68,64,62,96,77,50,30.19,30.08,5,0,5,0.00
2013-6-22,86,73,64,67,64,60,94,75,44,30.15,30.03,5,0,5,0.00
2013-6-23,86,78,70,73,70,65,96,75,56,30.12,30.02,5,0,5,0.00
2013-6-24,86,77,69,74,71,68,100,83,58,30.14,30.02,5,0,5,0.07
2013-6-25,87,78,70,72,70,68,100,80,56,30.07,29.94,7,0,7,0.00
2013-6-26,87,76,70,74,71,70,100,86,60,29.97,29.85,4,0,10,0.02
2013-6-27,89,80,74,74,73,71,98,81,58,29.87,29.65,13,0,13,0.00
2013-6-28,93,79,71,74,71,64,94,77,38,29.71,29.52,5,0,6,0.03
2013-6-29,88,76,69,72,69,63,100,80,47,29.63,29.54,6,0,6,0.00
2013-6-30,82,74,69,73,69,65,100,86,61,29.75,29.61,3,0,3,0.00
2013-7-1,80,72,69,72,69,67,100,91,67,29.82,29.72,4,0,4,0.22
2013-7-2,80,76,71,74,72,70,100,85,72,30.04,29.94,0,0,0,0.26
2013-7-3,80,72,68,73,71,68,100,95,73,30.13,30.02,6,0,6,0.86
2013-7-4,77,70,67,77,70,67,100,99,90,30.13,30.04,5,0,5,1.90
2013-7-5,84,72,68,75,71,67,100,95,68,30.16,30.07,3,0,3,0.65
2013-7-6,83,75,72,76,72,69,100,93,64,30.14,30.02,1,0,1,0.26
2013-7-7,83,76,72,75,72,70,100,90,66,30.09,30.00,5,0,5,0.06
2013-7-8,86,76,71,76,73,70,100,90,63,30.12,30.01,3,0,3,0.86
2013-7-9,88,76,70,77,73,70,100,90,65,30.10,29.97,5,0,5,0.51
2013-7-10,84,74,69,76,72,69,100,93,70,30.05,29.88,3,0,3,0.01
2013-7-11,81,76,73,75,73,72,100,93,75,29.89,29.79,5,0,5,0.00
2013-7-12,84,72,65,75,70,63,100,92,69,29.90,29.78,0,0,0,0.14
2013-7-13,73,69,66,71,68,66,100,99,94,30.01,29.90,1,0,1,0.03
2013-7-14,78,73,70,74,72,70,100,97,83,30.18,30.00,0,0,0,0.41
2013-7-15,84,74,70,76,72,70,100,94,64,30.24,30.15,5,0,7,0.18
2013-7-16,89,77,70,76,72,70,100,87,57,30.24,30.14,1,0,1,0.00
2013-7-17,90,77,69,78,73,67,100,88,57,30.18,30.03,1,0,1,0.42
2013-7-18,87,76,68,76,72,68,100,89,58,30.12,29.98,1,0,1,0.00
2013-7-19,89,79,71,76,73,71,100,85,60,30.04,29.90,1,0,6,0.00
2013-7-20,85,76,73,75,73,70,100,90,69,29.96,29.86,6,0,6,0.23
2013-7-21,88,76,70,77,72,69,100,88,62,29.94,29.83,5,0,5,0.91
2013-7-22,85,76,70,74,72,70,100,88,64,29.92,29.78,9,0,9,0.63
2013-7-23,87,77,69,74,71,67,100,83,59,29.82,29.71,7,0,11,0.01
2013-7-24,88,77,70,77,72,69,100,86,61,29.75,29.68,3,0,3,0.00
2013-7-25,84,74,68,74,69,62,100,86,62,29.93,29.74,1,0,1,0.00
2013-7-26,85,75,67,73,70,66,100,85,59,30.01,29.91,0,0,0,0.00
2013-7-27,80,75,71,74,72,69,100,91,75,29.93,29.81,0,0,0,0.99
2013-7-28,86,75,69,72,70,68,100,85,55,29.93,29.83,0,0,0,0.00
2013-7-29,86,75,69,72,69,64,100,84,51,30.07,29.92,2,0,3,0.00
2013-7-30,84,74,65,74,69,63,96,84,63,30.13,30.04,4,0,4,0.00
2013-7-31,79,75,72,74,72,67,100,90,71,30.07,29.90,2,0,2,0.02
2013-8-1,87,76,72,75,72,69,99,87,60,29.92,29.80,0,0,0,0.00
2013-8-2,88,76,69,74,71,69,100,85,57,29.94,29.83,0,0,0,0.00
2013-8-3,86,78,72,74,71,66,100,82,55,29.94,29.87,7,0,9,0.00
2013-8-4,90,76,68,77,70,65,98,85,54,29.94,29.84,1,0,1,0.12
2013-8-5,79,72,68,75,68,65,98,89,73,30.00,29.90,0,0,1,0.15
2013-8-6,81,74,70,78,72,68,100,93,81,29.98,29.88,0,0,0,1.27
2013-8-7,76,73,71,76,73,71,100,99,95,29.99,29.93,0,0,0,0.85
2013-8-8,85,76,72,77,73,69,100,91,69,30.00,29.92,2,0,2,0.00
2013-8-9,86,77,73,77,75,71,100,94,70,30.00,29.93,1,0,1,0.17
2013-8-10,90,79,73,76,74,71,100,86,59,30.03,29.96,2,0,2,0.00
2013-8-11,90,77,71,77,73,70,100,89,57,30.06,29.97,6,0,7,0.31
2013-8-12,90,77,72,78,74,72,100,90,59,30.00,29.88,1,0,1,0.14
2013-8-13,86,78,72,76,73,71,100,87,65,29.90,29.75,9,0,9,0.00
2013-8-14,79,73,69,73,69,64,99,86,66,29.98,29.78,1,0,1,0.00
2013-8-15,73,67,64,64,61,57,94,81,64,30.05,29.96,13,0,13,0.00
2013-8-16,70,64,61,66,62,59,100,93,79,30.09,30.00,6,0,6,0.55
2013-8-17,67,64,61,65,62,60,100,96,86,30.11,30.05,6,0,6,0.33
2013-8-18,76,68,64,71,68,64,100,97,81,30.15,30.06,0,0,0,0.20
2013-8-19,76,71,68,71,69,67,100,95,77,30.12,30.00,5,0,5,0.99
2013-8-20,78,72,69,73,70,68,100,94,77,30.12,30.03,0,0,0,0.01
2013-8-21,78,73,70,75,72,70,100,97,83,30.16,30.05,0,0,0,1.12
2013-8-22,87,75,69,75,72,69,100,90,60,30.09,29.96,1,0,1,0.01
2013-8-23,88,75,69,76,71,68,100,90,58,29.99,29.88,3,0,3,0.31
2013-8-24,70,67,64,70,67,63,100,99,97,30.13,29.97,1,1,1,0.00
2013-9-1,86,78,72,76,72,69,98,84,66,29.83,29.75,1,0,1,0.01
2013-9-2,85,77,71,74,72,71,100,88,66,29.84,29.74,0,0,0,0.00
2013-9-3,86,76,66,74,71,65,100,87,62,29.90,29.75,6,0,6,0.13
2013-9-4,86,75,67,73,69,65,96,82,58,30.01,29.87,4,0,4,0.00
2013-9-5,88,75,68,74,70,67,100,86,51,30.05,29.97,3,0,3,0.00
2013-9-6,84,72,64,68,64,61,93,77,51,30.11,29.99,7,0,7,0.00
2013-9-7,84,72,63,69,65,62,97,81,51,30.07,29.92,5,0,5,0.00
2013-9-8,84,72,64,75,69,64,100,90,59,29.93,29.86,3,0,3,0.15
2013-9-9,86,74,67,74,70,67,100,87,56,30.06,29.91,5,0,5,0.00
2013-9-10,86,74,67,73,69,67,100,86,57,30.17,30.05,1,0,1,0.00
2013-9-11,88,75,67,73,68,65,100,82,48,30.15,30.01,4,0,4,0.00
2013-9-12,88,74,67,74,69,66,97,86,56,30.02,29.79,7,0,7,0.03
2013-9-13,85,74,64,72,65,54,100,77,38,29.82,29.70,6,0,6,0.00
2013-9-14,79,66,57,63,56,51,90,71,50,30.03,29.82,7,0,7,0.00
2013-9-15,81,68,60,69,63,57,92,83,63,30.14,30.02,7,0,7,0.00
2013-9-16,86,73,64,69,66,61,98,80,45,30.07,29.97,6,0,6,0.00
2013-9-17,74,69,65,63,60,57,81,73,63,30.22,30.05,7,0,7,0.00
2013-9-18,75,66,61,63,58,54,92,76,56,30.22,30.09,4,0,5,0.00
2013-9-19,82,69,60,67,62,59,99,81,54,30.12,30.00,3,0,3,0.00
2013-9-20,86,72,63,68,64,62,97,79,46,30.01,29.85,6,0,6,0.00
2013-9-21,74,69,65,71,67,64,100,95,84,29.85,29.57,1,0,1,0.99
2013-9-22,80,66,59,65,62,58,100,87,51,29.82,29.66,7,0,7,0.00
2013-9-23,76,65,60,64,60,56,96,82,56,29.98,29.82,4,0,4,0.00
2013-9-24,74,65,57,65,61,56,99,87,66,30.01,29.86,3,0,3,0.15
2013-9-25,65,63,61,64,62,61,100,99,91,29.88,29.80,6,0,6,0.95
2013-9-26,76,64,59,65,61,58,100,90,62,29.97,29.81,7,0,7,0.01
2013-9-27,77,64,55,61,57,54,96,82,52,30.10,29.96,7,0,7,0.00
2013-9-28,73,62,56,59,56,54,96,81,57,30.19,30.07,10,0,10,0.00
2013-9-29,74,62,54,59,56,52,97,82,57,30.12,29.97,5,0,5,0.00
2013-9-30,76,64,57,62,58,55,99,81,50,30.04,29.93,3,0,3,0.00
2013-10-1,80,66,56,62,58,55,100,80,44,30.09,29.98,4,0,4,0.00
2013-10-2,82,66,60,67,61,58,94,85,52,30.10,29.98,5,0,5,0.00
2013-10-3,83,69,60,68,62,59,100,82,49,30.07,29.99,3,0,3,0.00
2013-10-4,85,70,60,69,63,59,100,82,49,30.09,30.00,5,0,5,0.00
2013-10-5,86,70,61,69,64,60,100,82,49,30.07,29.95,4,0,4,0.00
2013-10-6,81,70,62,69,64,61,100,85,56,29.97,29.78,3,0,3,0.00
2013-10-7,74,68,60,71,65,54,100,90,72,29.91,29.73,5,0,5,0.95
2013-10-8,68,62,58,56,52,47,85,71,56,30.11,29.90,14,0,14,0.00
2013-10-9,74,61,54,55,48,42,85,63,36,30.16,30.04,14,0,14,0.00
2013-10-10,78,62,49,61,53,47,99,76,44,30.08,29.92,6,0,6,0.00
2013-10-11,81,66,56,63,57,54,95,74,46,29.96,29.85,2,0,5,0.00
2013-10-12,79,65,56,64,59,54,97,81,50,30.01,29.90,4,0,4,0.00
2013-10-13,76,68,64,65,62,61,95,84,65,30.13,30.01,7,0,7,0.00
2013-10-14,69,65,63,62,61,59,94,87,76,30.15,30.06,7,0,7,0.00
2013-10-15,69,62,58,61,58,56,96,86,69,30.12,29.99,6,0,6,0.00
2013-10-16,72,62,54,60,57,54,100,85,56,30.02,29.90,2,0,2,0.00
2013-10-17,66,63,60,64,61,59,98,93,86,29.91,29.83,0,0,0,0.15
2013-10-20,68,59,50,52,49,46,89,71,50,30.02,29.95,3,0,3,0.00
2013-10-21,68,56,46,57,51,44,97,85,61,30.10,29.96,5,0,5,0.00
2013-10-22,66,60,57,58,56,50,97,86,58,29.97,29.75,6,0,6,0.00
2013-10-23,65,54,41,56,42,30,97,69,31,30.01,29.70,13,0,13,0.00
2013-10-24,63,48,35,46,38,33,95,72,41,30.15,30.01,7,0,7,0.00
2013-10-25,57,45,37,41,33,24,93,68,29,30.33,30.11,10,0,10,0.00
2013-10-26,58,44,31,40,33,28,89,69,41,30.33,30.06,14,0,14,0.00
2013-10-27,70,55,41,53,45,35,90,70,49,30.09,30.00,5,0,5,0.00
2013-10-28,66,59,55,59,54,52,96,85,65,30.20,30.05,4,0,4,0.01
2013-10-29,74,58,48,58,53,47,100,83,50,30.28,30.18,5,0,5,0.00
2013-10-30,77,63,54,59,56,53,97,80,50,30.24,30.09,9,0,9,0.00
2013-10-31,72,64,55,64,58,54,96,83,66,30.11,29.82,5,0,5,0.00
2013-11-1,69,64,59,64,61,58,99,88,73,29.83,29.62,7,0,7,0.17
2013-11-2,68,56,48,58,46,39,99,72,38,29.95,29.68,11,0,11,0.00
2013-11-3,65,50,40,43,39,33,94,71,33,30.29,29.94,5,0,5,0.00
2013-11-4,60,48,41,40,37,33,85,66,38,30.46,30.26,6,0,6,0.00
2013-11-5,61,48,39,48,40,31,89,73,53,30.48,30.34,10,0,10,0.00
2013-11-6,71,58,52,57,52,46,92,80,57,30.36,30.07,6,0,6,0.00
2013-11-7,76,58,44,60,48,32,98,74,26,30.09,29.89,7,0,7,0.02
2013-11-8,60,46,37,36,31,24,82,60,29,30.27,30.09,2,0,4,0.00
2013-11-9,58,46,36,40,33,28,80,61,34,30.33,30.17,4,0,4,0.00
2013-11-10,74,55,44,43,38,31,82,57,25,30.19,30.07,4,0,4,0.00
2013-11-11,61,49,40,39,33,26,79,57,28,30.30,30.11,4,0,5,0.00
2013-11-12,70,47,30,40,32,16,84,58,31,30.40,29.99,14,0,14,0.00
2013-11-13,38,29,24,23,18,14,71,62,47,30.48,30.40,1,1,1,0.00
2013-11-14,57,39,26,28,21,16,83,53,20,30.45,30.28,3,0,4,0.00
2013-11-15,58,47,35,48,37,23,98,70,30,30.30,30.13,3,0,3,0.06
2013-11-16,63,55,48,55,52,48,100,90,75,30.22,30.11,4,0,4,0.01
2013-11-17,66,60,56,66,58,53,100,94,83,30.13,29.85,3,0,3,0.29
2013-11-18,76,62,48,65,50,30,100,71,24,29.93,29.79,9,1,9,0.01
2013-11-19,58,47,37,37,30,24,85,55,28,30.19,29.92,10,0,10,0.00
2013-11-20,54,46,38,34,30,28,71,55,39,30.36,30.17,5,0,13,0.00
2013-11-21,52,48,45,49,40,33,100,76,58,30.40,30.31,7,0,7,0.17
2013-11-22,60,55,49,57,54,49,100,96,87,30.34,30.07,0,0,4,0.00
2013-11-23,61,55,40,58,48,24,100,78,49,30.14,30.00,8,0,8,0.00
2013-11-24,45,36,28,27,15,7,67,44,24,30.49,30.14,9,0,12,0.00
2013-11-25,42,34,26,17,11,6,62,40,25,30.53,30.26,7,0,7,0.00
2013-11-26,46,39,32,46,36,16,100,91,38,30.26,29.59,0,0,0,1.99
2013-11-27,48,40,26,46,34,19,100,81,43,30.20,29.49,19,2,19,0.25
2013-11-28,45,32,21,27,22,18,91,69,37,30.44,30.19,5,2,5,0.01
2013-11-29,55,39,26,31,26,19,92,65,26,30.51,30.41,6,0,6,0.00
2013-11-30,48,38,31,30,25,21,77,60,35,30.58,30.32,5,1,11,0.00
2013-12-1,55,42,32,43,33,25,92,71,47,30.32,29.97,5,0,5,0.00
2013-12-2,58,46,35,48,41,33,99,84,48,29.97,29.76,6,0,6,0.00
2013-12-3,56,52,49,54,52,48,100,97,86,29.89,29.80,4,0,4,0.30
2013-12-4,62,57,54,62,57,54,100,100,100,30.00,29.87,0,0,0,0.18
2013-12-5,68,64,60,68,64,60,100,99,95,30.03,29.94,0,0,0,0.02
2013-12-6,77,69,66,66,64,62,97,85,60,29.99,29.89,10,2,16,0.07
2013-12-7,65,57,49,63,53,43,100,87,67,30.31,29.93,9,3,9,0.20
2013-12-8,49,41,36,43,39,36,99,93,77,30.33,30.21,7,3,7,0.12
2013-12-9,46,41,36,46,41,36,100,100,99,30.23,29.99,3,3,3,0.48
2013-12-10,60,47,31,53,40,25,100,78,37,30.28,29.86,17,3,17,0.11
2013-12-11,52,37,26,32,25,19,91,66,33,30.42,30.26,7,0,7,0.00
2013-12-12,51,39,28,28,23,18,82,56,29,30.37,30.27,5,0,5,0.00
2013-12-13,53,38,26,34,24,13,78,57,31,30.34,30.19,9,0,9,0.00
2013-12-14,42,41,41,35,32,30,76,69,65,30.20,30.14,0,0,0,0.00
2013-12-18,54,46,32,25,17,11,67,33,19,30.25,30.19,7,0,7,0.00
2013-12-19,62,44,29,31,26,19,83,52,21,30.30,30.17,5,0,7,0.00
2013-12-20,57,48,38,47,40,30,89,75,65,30.20,30.10,1,0,1,0.00
2013-12-21,69,57,47,62,54,44,95,88,76,30.10,29.92,0,0,0,0.00
2013-12-22,69,64,59,65,62,59,100,93,81,29.99,29.89,12,1,15,1.48
2013-12-23,59,55,46,59,53,40,100,92,75,30.12,29.92,7,1,7,0.64
2013-12-24,52,41,28,41,30,17,97,68,27,30.38,30.10,12,1,12,0.00
2013-12-25,41,32,24,24,16,10,74,54,29,30.51,30.34,6,0,6,0.00
2013-12-26,54,39,28,31,25,19,81,58,31,30.34,30.19,6,0,6,0.00
2013-12-27,52,39,31,27,24,19,76,58,30,30.43,30.29,5,0,5,0.00
2013-12-28,50,38,28,39,31,24,96,77,41,30.37,30.02,4,0,4,0.46
2013-12-29,60,47,40,50,43,39,100,89,68,30.02,29.76,9,1,12,0.99
2013-12-30,53,45,36,43,39,35,99,82,62,30.08,29.91,9,2,9,0.00
2013-12-31,51,42,34,38,32,25,93,69,36,30.32,30.07,6,2,6,0.00
2014-1-1,48,40,32,37,30,24,84,70,49,30.34,30.09,4,0,4,0.00
2014-1-2,46,42,29,46,38,15,99,86,53,30.10,29.63,0,0,0,0.22